Location: ?????
(32.8223°N, 35.1927°E)
Time: 21:29:28
(UTC+00:00)

Daily predictions for brighter satellites

Satellite Brightness Start Highest point End
(mag) Time Altitude Azimuth Time Altitude Azimuth Time Altitude Azimuth
FALCON 9 DEB 2.9 15:16:56 10° SW 15:20:09 89° WNW 15:23:22 10° NE
COSMOS 2487 3.0 15:17:23 10° N 15:20:33 34° ENE 15:23:41 10° SE
Helios 1A Rocket 4.3 15:19:27 10° ESE 15:22:19 19° ENE 15:25:13 10° NNE
Aureole 3 Rocket 3.8 15:25:08 10° SE 15:27:50 23° E 15:31:02 10° NNE
NOAA 12 4.3 15:23:06 10° S 15:28:21 79° WSW 15:33:40 10° NNW
Cosmos 1939 Rocket 3.5 15:26:56 10° SE 15:30:34 33° ENE 15:34:09 10° N
Cosmos 1850 Rocket 4.0 15:26:09 10° NNW 15:31:27 69° ENE 15:36:45 10° SSE
Cosmos 2297 Rocket 3.9 15:29:16 10° NNE 15:31:47 13° NE 15:34:00 11° E
H-2A R/B 3.6 15:32:41 10° E 15:35:44 15° ENE 15:38:48 10° NNE
Okean O Rocket 2.5 15:31:28 10° S 15:35:44 53° W 15:40:01 10° NNW
PSLV R/B 4.0 15:33:44 10° NNE 15:37:52 58° E 15:41:55 10° S
USA 276 2.0 15:35:48 10° NW 15:38:59 87° NE 15:42:10 10° SE
IRS-1C Rocket 4.3 15:35:15 10° SSE 15:40:18 50° ENE 15:45:23 10° N
COSMO-SKYMED 1 2.5 15:36:01 10° NNE 15:40:23 79° ESE 15:44:42 10° S
BREEZE-M DEB (TANK) 3.3 15:37:48 10° SSW 15:41:11 28° SE 15:42:27 17° E
USA 281 3.7 15:35:12 10° SSE 15:41:41 65° WSW 15:48:13 10° NNW
MOS 1 Rocket 4.4 15:40:39 10° NE 15:44:33 25° E 15:48:36 10° SSE
Cosmos 1689 Rocket 2.2 15:45:14 10° N 15:48:05 71° WNW 15:50:57 10° SSW
CZ-4 R/B 2.2 15:44:47 10° SE 15:48:10 28° ENE 15:51:30 10° NNE
YAOGAN 1 3.4 15:47:10 10° SE 15:50:48 27° ENE 15:54:27 10° NNE
Meteor 2-8 Rocket 4.5 15:46:33 10° S 15:52:29 57° E 15:58:27 10° NNE
Cosmos 1825 Rocket 3.6 15:50:33 10° N 15:55:00 87° W 15:59:24 10° S
Cosmos 1340 3.7 15:52:27 10° NNE 15:55:30 23° ENE 15:56:07 22° E
Meteor 2-21 Rocket 4.4 15:49:44 10° N 15:55:54 76° E 16:02:00 10° S
Cosmos 2219 4.3 15:52:53 10° N 15:57:26 23° ENE 15:59:21 20° E
ASTRO E2 3.8 15:54:58 10° SW 15:58:28 30° SSE 16:00:16 21° ESE
Atlas Centaur 2 3.6 15:52:24 10° SW 16:00:28 48° SSE 16:06:02 20° E
Cosmos 44 4.1 15:58:24 10° SW 16:02:37 46° WNW 16:07:04 10° NNE
Cosmos 1400 Rocket 2.7 15:58:50 10° S 16:02:56 78° E 16:07:04 10° N
Okean-O 2.7 15:59:19 10° SSE 16:03:36 51° ENE 16:07:54 10° N
Cosmos 1726 Rocket 4.2 16:00:13 10° SSW 16:04:26 56° W 16:08:43 10° N
Geosat 4.0 16:00:45 10° NNE 16:05:47 85° WNW 16:10:49 10° SSW
Cosmos 1455 4.5 16:04:02 10° SE 16:04:07 11° SE 16:04:07 11° SE
Delta 2 Rocket 4.1 16:05:50 10° WNW 16:11:11 66° N 16:14:08 29° E
Cosmos 2369 4.4 16:07:06 10° SSE 16:12:01 30° ESE 16:13:26 27° ENE
Aureole 3 3.3 16:09:46 10° SSW 16:13:28 64° W 16:16:37 10° N
Milstar 3 3.0 16:07:29 10° WSW 16:14:15 59° S 16:18:20 25° ESE
Meteor 2-1 Rocket 4.5 16:09:48 10° SSE 16:14:57 41° E 16:20:05 10° NNE
Elektron 3 4.0 16:12:06 10° NNW 16:16:41 81° NE 16:17:55 35° SE
CZ-2C R/B 3.3 16:16:56 10° SSE 16:22:40 65° ENE 16:28:23 10° N
NOSS 3-3 (A) 3.8 16:17:47 10° SSW 16:23:12 56° ESE 16:26:32 25° NE
NOSS 3-3 (C) 3.8 16:17:51 10° SSW 16:23:20 56° ESE 16:26:41 25° NE
OAO 3 Rocket 3.1 16:18:49 10° WNW 16:23:35 73° N 16:25:01 44° E
Cosmos 1244 Rocket 4.5 16:19:42 10° N 16:25:56 87° W 16:32:12 10° S
ARGOS 3.8 16:27:37 34° ENE 16:27:37 34° ENE 16:32:05 10° N
Meteor 2-15 4.3 16:21:31 10° S 16:27:37 73° E 16:33:44 10° N
Cosmos 1315 Rocket 4.4 16:26:23 10° S 16:27:53 21° SSE 16:27:53 21° SSE
NOAA 15 4.5 16:25:03 10° SSE 16:30:20 82° ENE 16:35:40 10° N
Meteor 2-10 Rocket 3.4 16:25:06 10° S 16:30:32 70° E 16:35:47 10° NNE
GPS 2-04 Rocket1 4.1 16:27:03 10° SSW 16:30:11 26° SSE 16:30:11 26° SSE
SeaSat 1 3.6 16:35:06 26° NNE 16:35:06 26° NNE 16:38:01 10° N
Cosmos 2227 Rocket 2.8 16:30:44 10° N 16:35:15 35° NE 16:35:15 35° NE
Cosmos 1656 4.0 16:32:11 10° SSW 16:37:38 63° WNW 16:43:12 10° NNE
CSL-04 Rocket 3.6 16:34:25 10° SSE 16:39:54 65° ENE 16:45:24 10° N
Hubble Space Telescope 2.9 16:40:41 10° WSW 16:43:26 17° SSW 16:44:30 16° S
Delta 142 4.5 16:40:59 10° WSW 16:46:04 57° S 16:47:27 46° SE
Cosmos 1892 4.5 16:42:44 10° N 16:44:14 22° N 16:44:14 22° N
OAO 2 Rocket 3.0 16:42:26 10° WSW 16:47:24 86° SSE 16:47:42 79° E
Cosmos 968 Rocket 4.4 16:43:46 10° N 16:46:53 32° NNE 16:46:53 32° NNE
Cosmos 1697 Rocket 2.5 16:43:26 10° SSW 16:49:01 81° ESE 16:51:02 42° NNE
Cosmos 883 Rocket 4.3 16:47:30 10° S 16:53:37 64° E 16:59:40 10° NNE
Centaur AC-119 3.9 16:50:45 10° WSW 16:53:40 23° SW 16:53:40 23° SW
S3M 4.1 16:48:34 10° S 16:54:39 74° W 17:00:47 10° N
GEOS 3 Rocket 3.6 16:55:36 66° NE 16:55:36 66° NE 17:00:47 10° NNW
Cosmos 220 Rocket 4.4 16:55:39 10° SSW 16:59:52 59° WNW 16:59:52 59° WNW
Timation 2 Rocket 4.4 16:56:18 10° NNW 17:02:55 66° WSW 17:09:28 11° S
Cosmos 1980 Rocket 3.8 17:04:41 10° S 17:06:39 22° S 17:06:39 22° S
H-2A R/B 2.6 17:11:05 21° S 17:14:33 57° W 17:19:55 10° NNW
Cosmos 2360 4.3 17:09:53 10° SSW 17:15:08 72° WSW 17:15:08 72° WSW
Cosmos 2297 Rocket 2.3 17:10:45 10° NNW 17:15:53 70° WNW 17:15:53 70° WNW
CZ-4 R/B 4.3 17:20:48 10° SW 17:23:10 15° W 17:25:31 10° WNW
Cosmos 2219 4.3 17:36:19 10° NW 17:41:21 41° W 17:41:21 41° W
Atlas Centaur 2 3.3 17:41:38 10° WSW 17:48:39 60° SW 17:48:39 60° SW
H-2A R/B (2) 4.4 18:23:45 10° W 18:42:29 45° WSW 18:42:29 45° WSW
